TimePDT,TemperatureF,Dew PointF,Humidity,Sea Level PressureIn,VisibilityMPH,Wind Direction,Wind SpeedMPH,Gust SpeedMPH,PrecipitationIn,Events,Conditions,WindDirDegrees,DateUTC
12:56 AM,93.9,48.9,21,29.77,10.0,WSW,10.4,-,N/A,,Unknown,240,2013-07-02 07:56:00
1:56 AM,90.0,48.0,24,29.77,10.0,West,5.8,-,N/A,,Unknown,260,2013-07-02 08:56:00
2:56 AM,88.0,48.0,25,29.77,10.0,WNW,5.8,-,N/A,,Unknown,300,2013-07-02 09:56:00
3:56 AM,91.9,50.0,24,29.77,10.0,SSW,5.8,-,N/A,,Unknown,210,2013-07-02 10:56:00
4:56 AM,84.9,64.0,49,29.81,10.0,SSE,15.0,-,N/A,,Unknown,150,2013-07-02 11:56:00
5:56 AM,84.9,71.1,63,29.81,-9999.0,SSE,15.0,-,N/A,,Scattered Clouds,160,2013-07-02 12:56:00
6:56 AM,84.9,72.0,65,29.83,10.0,SE,6.9,-,N/A,,Scattered Clouds,140,2013-07-02 13:56:00
7:56 AM,91.0,72.0,53,29.87,10.0,East,15.0,-,N/A,,Scattered Clouds,100,2013-07-02 14:56:00
8:56 AM,91.9,71.1,50,29.91,7.0,SE,21.9,32.2,N/A,,Scattered Clouds,130,2013-07-02 15:56:00
9:56 AM,96.1,68.0,40,29.91,4.0,SE,26.5,33.4,N/A,,Haze,140,2013-07-02 16:56:00
10:56 AM,100.0,64.9,32,29.89,10.0,SE,12.7,-,N/A,,Mostly Cloudy,140,2013-07-02 17:56:00
11:56 AM,104.0,62.1,25,29.86,7.0,SSW,11.5,-,N/A,,Mostly Cloudy,200,2013-07-02 18:56:00
12:56 PM,104.0,57.9,22,29.85,10.0,WSW,5.8,-,N/A,,Mostly Cloudy,240,2013-07-02 19:56:00
1:56 PM,106.0,55.9,19,29.82,10.0,Calm,Calm,-,N/A,,Mostly Cloudy,0,2013-07-02 20:56:00
2:56 PM,108.0,57.0,19,29.80,10.0,SE,6.9,-,N/A,,Mostly Cloudy,130,2013-07-02 21:56:00
3:56 PM,109.0,53.1,16,29.76,10.0,Calm,Calm,-,N/A,,Mostly Cloudy,0,2013-07-02 22:56:00
4:56 PM,109.9,53.1,15,29.73,10.0,Calm,Calm,-,N/A,,Mostly Cloudy,0,2013-07-02 23:56:00
5:56 PM,111.0,54.0,15,29.71,10.0,Calm,Calm,-,N/A,,Mostly Cloudy,0,2013-07-03 00:56:00
6:56 PM,109.0,57.0,18,29.72,10.0,ENE,4.6,-,N/A,,Scattered Clouds,60,2013-07-03 01:56:00
7:56 PM,105.1,48.0,15,29.73,10.0,NW,5.8,-,N/A,,Mostly Cloudy,320,2013-07-03 02:56:00
8:56 PM,102.0,44.1,14,29.74,10.0,West,16.1,-,N/A,,Mostly Cloudy,260,2013-07-03 03:56:00
9:56 PM,96.1,44.1,17,29.76,10.0,West,10.4,-,N/A,,Scattered Clouds,260,2013-07-03 04:56:00
10:56 PM,93.9,46.9,20,29.77,10.0,West,8.1,-,N/A,,Scattered Clouds,260,2013-07-03 05:56:00
11:56 PM,93.9,45.0,18,29.78,10.0,West,10.4,-,N/A,,Unknown,270,2013-07-03 06:56:00